Stations météo

réclame
Mon MeteoGroup
Milford-Haven, Grande-Bretagne (3604): Température de l'air & dewpoint: 11.01.2019 00:00:00 - 17.01.2019 00:00:00 (GMT)Milford-Haven, Grande-Bretagne (3604): Température de l'air -20cm & Température de l'air -100cm: 11.01.2019 00:00:00 - 17.01.2019 00:00:00 (GMT)Milford-Haven, Grande-Bretagne (3604): Vitesse du vent & gusts: 11.01.2019 00:00:00 - 17.01.2019 00:00:00 (GMT)Milford-Haven, Grande-Bretagne (3604): Direction du vent: 11.01.2019 00:00:00 - 17.01.2019 00:00:00 (GMT)Milford-Haven, Grande-Bretagne (3604): reduced air pressure: 11.01.2019 00:00:00 - 17.01.2019 00:00:00 (GMT)Milford-Haven, Grande-Bretagne (3604): visibility: 11.01.2019 00:00:00 - 17.01.2019 00:00:00 (GMT)Milford-Haven, Grande-Bretagne (3604): Quantités de précipitations: 11.01.2019 00:00:00 - 17.01.2019 00:00:00 (GMT)
Date & Time tt [°C] td [°C] tt -20cm [°C] tt -100cm [°C] ff [km/h] ff [knt] fx [km/h] fx [knt] dd ppp [hPa] vv [km] rr [mm]
17.01.2019 00:00:00 5,5 2,7 - - 28 15 46 25 NW 1006,1 60 0,0
16.01.2019 23:00:00 5,5 2,8 - - 29 16 52 28 NW 1005,0 50 0,0
16.01.2019 22:00:00 5,6 3,4 - - 31 17 52 28 NW 1004,0 50 0,0
16.01.2019 21:00:00 5,9 3,8 - - 31 17 52 28 NW 1002,8 75 0,6
16.01.2019 20:00:00 6,2 3,9 - - 22 12 - - WNW 1002,0 60 0,0
16.01.2019 19:00:00 6,6 4,3 - - 21 11 - - WNW 1001,7 40 0,0
16.01.2019 18:00:00 6,1 4,3 - - 15 8 55 30 WSW 1002,1 40 0,8
16.01.2019 17:00:00 6,3 3,0 - - 31 17 61 33 WSW 1002,7 0,6 1,6
16.01.2019 16:00:00 7,8 1,9 - - 24 13 - - W 1003,2 50 0,0
16.01.2019 15:00:00 7,9 2,0 - - 24 13 - - W 1003,7 55 0,0
16.01.2019 14:00:00 8,3 3,5 - - 21 11 - - W 1004,2 50 0,0
16.01.2019 13:00:00 7,9 5,5 - - 18 10 - - W 1004,5 40 0,0
16.01.2019 12:00:00 7,1 5,6 - - 11 6 - - W 1004,7 50 0,2
16.01.2019 11:00:00 6,2 5,5 - - 11 6 - - WNW 1005,2 26 0,6
16.01.2019 10:00:00 5,8 4,9 - - 15 8 - - NW 1005,2 6 1,8
16.01.2019 09:00:00 6,0 5,3 7,7 8,5 28 15 - - NW 1004,6 6 0,8
16.01.2019 08:00:00 7,3 6,2 - - 26 14 52 28 NNW 1004,1 3,0 0,8
16.01.2019 07:00:00 9,6 8,2 - - 21 11 - - WSW 1004,4 29 0,0
16.01.2019 06:00:00 9,7 8,1 - - 21 11 46 25 WSW 1005,0 28 0,0
16.01.2019 05:00:00 9,8 7,8 - - 26 14 46 25 WSW 1005,8 28 0,0
16.01.2019 04:00:00 9,6 8,2 - - 18 10 - - SW 1006,8 28 0,0
16.01.2019 03:00:00 9,5 8,4 - - 18 10 - - SW 1007,9 26 0,0
16.01.2019 02:00:00 9,5 8,7 - - 21 11 - - SW 1008,5 23 0,0
16.01.2019 01:00:00 9,3 8,1 - - 22 12 - - SW 1009,7 35 0,0
16.01.2019 00:00:00 9,2 8,5 - - 24 13 - - SW 1010,6 45 0,8
15.01.2019 23:00:00 9,5 9,0 - - 21 11 - - SW 1011,3 11 0,0
15.01.2019 22:00:00 9,4 9,0 - - 18 10 - - SW 1012,2 2,3 0,4
15.01.2019 21:00:00 9,5 9,1 - - 18 10 - - WSW 1012,9 11 0,6
15.01.2019 20:00:00 9,5 8,5 - - 22 12 - - SW 1013,8 45 0,0
15.01.2019 19:00:00 9,6 8,5 - - 18 10 - - SW 1014,6 35 0,0
15.01.2019 18:00:00 9,3 7,8 - - 15 8 - - SW 1015,3 55 0,0
15.01.2019 17:00:00 9,7 7,4 - - 16 9 - - WSW 1015,9 55 0,0
15.01.2019 16:00:00 9,7 7,3 - - 21 11 - - WSW 1016,5 60 0,0
15.01.2019 15:00:00 8,9 7,8 - - 26 14 - - W 1017,2 55 0,2
15.01.2019 14:00:00 9,0 7,8 - - 28 15 48 26 WSW 1017,8 4,7 0,0
15.01.2019 13:00:00 9,3 8,0 - - 15 8 - - WSW 1018,8 2,7 0,2
15.01.2019 12:00:00 9,7 7,8 - - 18 10 - - WSW 1019,6 20 0,0
15.01.2019 11:00:00 9,5 7,6 - - 18 10 - - WSW 1020,3 75 0,0
15.01.2019 10:00:00 9,4 7,7 - - 16 9 - - W 1020,5 70 0,0
15.01.2019 09:00:00 9,0 7,7 7,4 8,4 16 9 - - W 1020,6 11 0,0
15.01.2019 08:00:00 8,8 6,5 - - 18 10 - - W 1020,6 75 0,0
15.01.2019 07:00:00 8,2 7,2 - - 13 7 - - W 1020,8 55 0,0
15.01.2019 06:00:00 8,5 7,7 - - 21 11 - - W 1021,2 55 0,0
15.01.2019 05:00:00 9,0 7,9 - - 16 9 - - WSW 1021,4 19 0,0
15.01.2019 04:00:00 8,4 7,3 - - 16 9 - - W 1022,2 40 0,0
15.01.2019 03:00:00 9,1 7,4 - - 13 7 - - WSW 1022,8 28 0,0
15.01.2019 02:00:00 9,0 7,1 - - 13 7 - - WSW 1023,5 35 0,0
15.01.2019 01:00:00 9,2 5,4 - - 18 10 - - W 1023,8 75 0,0
15.01.2019 00:00:00 9,4 5,8 - - 16 9 - - W 1024,2 55 0,0
14.01.2019 23:00:00 9,2 5,6 - - 16 9 - - W 1024,5 40 0,0
14.01.2019 22:00:00 9,0 5,3 - - 18 10 - - W 1024,4 35 0,0
14.01.2019 21:00:00 8,6 5,0 - - 15 8 - - W 1024,6 40 0,0
14.01.2019 20:00:00 8,0 4,8 - - 8 4 - - W 1024,8 35 0,0
14.01.2019 19:00:00 7,7 3,2 - - 8 4 - - WNW 1024,9 40 0,0
14.01.2019 18:00:00 7,6 2,7 - - 9 5 - - WNW 1024,9 45 0,0
14.01.2019 17:00:00 7,7 1,9 - - 8 4 - - NW 1025,2 40 0,0
14.01.2019 16:00:00 8,2 1,7 - - 15 8 - - WNW 1025,2 50 0,0
14.01.2019 15:00:00 8,3 1,8 - - 11 6 - - NW 1025,1 35 0,0
14.01.2019 14:00:00 8,6 2,1 - - 16 9 - - WNW 1025,0 50 0,0
14.01.2019 13:00:00 8,8 2,1 - - 13 7 - - WNW 1025,1 50 0,0
14.01.2019 12:00:00 8,9 2,4 - - 13 7 - - NW 1025,1 70 0,0
14.01.2019 11:00:00 8,7 2,3 - - 16 9 - - NNW 1025,1 75 0,0
14.01.2019 10:00:00 8,5 2,6 - - 18 10 - - NW 1024,4 65 0,0
14.01.2019 09:00:00 8,3 1,9 7,5 8,4 15 8 - - NW 1024,5 70 0,0
14.01.2019 08:00:00 8,5 1,7 - - 22 12 - - NNW 1023,8 65 0,0
14.01.2019 07:00:00 8,4 1,8 - - 22 12 - - NW 1023,3 65 0,0
14.01.2019 06:00:00 8,2 2,9 - - 18 10 - - NW 1023,4 40 0,0
14.01.2019 05:00:00 7,6 3,1 - - 26 14 - - NW 1022,5 30 0,0
14.01.2019 04:00:00 7,7 3,0 - - 24 13 - - NW 1022,2 35 0,0
14.01.2019 03:00:00 8,0 3,2 - - 24 13 - - NW 1022,3 30 0,0
14.01.2019 02:00:00 8,2 3,5 - - 18 10 - - NW 1021,7 29 0,0
14.01.2019 01:00:00 9,0 3,3 - - 18 10 - - NW 1021,5 30 0,0
14.01.2019 00:00:00 9,0 3,1 - - 26 14 - - NW 1020,9 30 0,0
13.01.2019 23:00:00 8,9 3,5 - - 22 12 - - NW 1020,4 28 0,0
13.01.2019 22:00:00 8,8 3,0 - - 26 14 57 31 NNW 1020,0 28 0,0
13.01.2019 21:00:00 9,4 4,1 - - 31 17 61 33 NW 1019,2 27 0,0
13.01.2019 20:00:00 9,9 4,2 - - 41 22 65 35 NW 1018,0 29 0,0
13.01.2019 19:00:00 10,3 8,7 - - 29 16 46 25 NW 1017,9 30 0,0
13.01.2019 18:00:00 10,5 8,3 - - 26 14 48 26 WNW 1017,7 50 0,0
13.01.2019 17:00:00 10,4 8,3 - - 28 15 50 27 WNW 1017,6 45 0,0
13.01.2019 16:00:00 10,5 8,3 - - 22 12 54 29 WNW 1017,9 35 0,0
13.01.2019 15:00:00 10,6 8,5 - - 29 16 52 28 WNW 1017,6 30 0,0
13.01.2019 14:00:00 10,5 8,3 - - 28 15 46 25 WNW 1017,8 23 0,0
13.01.2019 13:00:00 10,5 8,1 - - 26 14 48 26 W 1018,3 30 0,0
13.01.2019 12:00:00 10,8 8,0 - - 26 14 46 25 WNW 1018,8 35 0,0
13.01.2019 11:00:00 10,5 7,9 - - 21 11 - - WNW 1019,9 35 0,0
13.01.2019 10:00:00 9,7 7,7 - - 24 13 - - W 1019,8 29 0,0
13.01.2019 09:00:00 9,5 7,8 7,7 8,2 16 9 - - W 1020,5 28 0,0
13.01.2019 08:00:00 9,6 7,8 - - 16 9 - - W 1020,9 30 0,0
13.01.2019 07:00:00 9,7 7,7 - - 18 10 - - W 1021,0 30 0,0
13.01.2019 06:00:00 9,4 7,7 - - 15 8 - - W 1021,0 28 0,0
13.01.2019 05:00:00 9,0 7,2 - - 15 8 - - W 1021,6 35 0,0
13.01.2019 04:00:00 9,6 7,4 - - 13 7 - - WNW 1022,5 50 0,0
13.01.2019 03:00:00 10,0 8,2 - - 21 11 - - W 1023,2 30 0,0
13.01.2019 02:00:00 10,1 8,8 - - 22 12 - - W 1023,1 28 0,0
13.01.2019 01:00:00 9,7 8,5 - - 18 10 - - W 1023,8 26 0,0
13.01.2019 00:00:00 10,0 8,6 - - 22 12 - - W 1024,7 26 0,0
12.01.2019 23:00:00 9,8 8,4 - - 22 12 - - W 1025,3 30 0,0
12.01.2019 22:00:00 10,0 8,6 - - 15 8 - - W 1025,9 28 0,0
12.01.2019 21:00:00 9,8 8,4 - - 22 12 - - W 1025,7 30 0,0
12.01.2019 20:00:00 10,1 8,4 - - 18 10 - - W 1026,0 29 0,0
12.01.2019 19:00:00 9,8 8,2 - - 21 11 - - WNW 1026,2 30 0,0
12.01.2019 18:00:00 10,0 8,0 - - 21 11 - - W 1025,6 30 0,0
12.01.2019 17:00:00 10,0 7,8 - - 18 10 - - WNW 1026,3 30 0,0
12.01.2019 16:00:00 9,7 7,1 - - 16 9 - - W 1026,1 30 0,0
12.01.2019 15:00:00 9,7 6,7 - - 16 9 - - WNW 1026,1 65 0,0
12.01.2019 14:00:00 10,1 6,4 - - 22 12 - - WNW 1026,4 70 0,0
12.01.2019 13:00:00 10,0 6,6 - - 22 12 - - WNW 1026,8 65 0,0
12.01.2019 12:00:00 10,2 6,7 - - 18 10 48 26 WNW 1026,9 55 0,0
12.01.2019 11:00:00 9,9 6,7 - - 21 11 - - WNW 1027,3 - 0,0
12.01.2019 10:00:00 9,6 6,5 - - 21 11 - - WNW 1027,4 45 0,0
12.01.2019 09:00:00 9,9 7,6 7,0 8,2 26 14 - - WNW 1027,1 45 0,0
12.01.2019 08:00:00 10,0 8,4 - - 28 15 48 26 W 1027,1 40 0,0
12.01.2019 07:00:00 9,9 8,1 - - 24 13 - - W 1027,2 45 0,0
12.01.2019 06:00:00 9,7 7,7 - - 22 12 - - W 1027,6 45 0,0
12.01.2019 05:00:00 9,6 7,2 - - 21 11 - - W 1028,3 55 0,0
12.01.2019 04:00:00 9,8 7,0 - - 22 12 - - W 1029,3 75 0,0
12.01.2019 03:00:00 9,5 6,7 - - 16 9 - - WNW 1029,7 75 0,0
12.01.2019 02:00:00 9,5 6,5 - - 22 12 - - W 1030,4 75 0,0
12.01.2019 01:00:00 9,7 6,5 - - 13 7 - - W 1030,9 40 0,0
12.01.2019 00:00:00 9,6 7,8 - - 21 11 - - W 1031,3 75 0,0
11.01.2019 23:00:00 9,4 7,4 - - 15 8 - - W 1031,7 75 0,0
11.01.2019 22:00:00 9,1 7,3 - - 11 6 - - WNW 1032,8 70 0,0
11.01.2019 21:00:00 9,0 7,0 - - 11 6 - - WNW 1032,9 75 0,0
11.01.2019 20:00:00 8,9 7,2 - - 11 6 - - NW 1032,9 50 0,0
11.01.2019 19:00:00 9,4 7,0 - - 9 5 - - WNW 1032,9 30 0,0
11.01.2019 18:00:00 9,4 7,0 - - 13 7 - - WNW 1033,1 40 0,0
11.01.2019 17:00:00 9,1 5,9 - - 9 5 - - WNW 1033,2 60 0,0
11.01.2019 16:00:00 9,6 5,6 - - 13 7 - - NW 1033,4 55 0,0
11.01.2019 15:00:00 9,8 5,9 - - 9 5 - - NNW 1033,3 60 0,0
11.01.2019 14:00:00 9,9 6,3 - - 11 6 - - NW 1033,3 45 0,0
11.01.2019 13:00:00 10,1 6,3 - - 13 7 - - NW 1033,8 60 0,0
11.01.2019 12:00:00 10,0 6,3 - - 13 7 - - NNW 1034,2 70 0,0
11.01.2019 11:00:00 9,7 6,8 - - 13 7 - - NNW 1034,5 45 0,0
11.01.2019 10:00:00 8,9 6,5 - - 8 4 - - NW 1034,2 40 0,0
11.01.2019 09:00:00 8,7 5,9 6,7 8,4 13 7 - - N 1033,9 50 0,0
11.01.2019 08:00:00 9,0 6,2 - - 16 9 - - NNW 1033,5 40 0,0
11.01.2019 07:00:00 9,0 5,9 - - 18 10 - - NNW 1033,2 45 0,0
11.01.2019 06:00:00 9,0 6,1 - - 15 8 - - NNW 1032,9 45 0,0
11.01.2019 05:00:00 8,6 5,6 - - 9 5 - - N 1033,0 55 0,0
11.01.2019 04:00:00 9,1 5,8 - - 15 8 - - N 1033,3 45 0,0
11.01.2019 03:00:00 8,6 6,1 - - 11 6 - - NW 1033,1 45 0,0
11.01.2019 02:00:00 8,3 6,3 - - 11 6 - - NW 1033,1 35 0,0
11.01.2019 01:00:00 8,6 6,3 - - 11 6 - - NNW 1033,4 40 0,0
11.01.2019 00:00:00 8,2 7,5 - - 13 7 - - NW 1033,5 22 0,0

tt = Température de l'air
td = dewpoint
tt -20cm = Température de l'air -20cm
tt -100cm = Température de l'air -100cm
ff = Vitesse du vent
fx = gusts
dd = Direction du vent
ppp = reduced air pressure
vv = visibility
rr = Quantités de précipitations

stations d'obs. à proximité